When you browse on this site, cookies collect data to enhance your experience and personalize the content and advertising you see.
Visit our Privacy Policy to learn more. By continuing to use the site, you agree to this use of cookies and data.
  • In Hungary
  • List of Countries
  • For 7 days
  • Water Temperature
  • Weather Map
  • News
  • Weather Widgets
  • user-avatar
    Login

    Hourly Weather Traunreut

    Today, 12 December, Thursday

    Time Temperature Precipitation Wind Pressure Humidity
    00:00 +1°C° 0 mm 1 mps 706 mmHg 66%
    01:00 +2°C° 0 mm 1 mps 706 mmHg 66%
    02:00 +2°C° 0 mm 1 mps 705 mmHg 76%
    03:00 +2°C° 0 mm 1 mps 705 mmHg 85%
    04:00 +2°C° 0 mm 1 mps 705 mmHg 94%
    05:00 +2°C° 0.2 mm 1 mps 705 mmHg 95%
    06:00 +2°C° 0.2 mm 1 mps 705 mmHg 95%
    07:00 -1°C° 0 mm 2 mps 705 mmHg 94%
    08:00 +2°C° 0 mm 1 mps 705 mmHg 91%
    09:00 +2°C° 0 mm 1 mps 705 mmHg 88%
    10:00 +2°C° 0 mm 1 mps 704 mmHg 85%
    11:00 +3°C° 0 mm 1 mps 704 mmHg 79%
    12:00 +4°C° 0 mm 1 mps 704 mmHg 74%
    13:00 +5°C° 0 mm 1 mps 704 mmHg 68%
    14:00 +4°C° 0.1 mm 1 mps 704 mmHg 77%
    15:00 +3°C° 0.1 mm 1 mps 703 mmHg 85%
    16:00 +2°C° 0.1 mm 1 mps 702 mmHg 93%
    17:00 +1°C° 0.1 mm 1 mps 702 mmHg 94%
    18:00 +1°C° 0.1 mm 1 mps 702 mmHg 95%
    19:00 +1°C° 0.1 mm 1 mps 702 mmHg 96%
    20:00 0°C° 0 mm 1 mps 701 mmHg 95%
    21:00 0°C° 0 mm 1 mps 700 mmHg 93%
    22:00 -2°C° 0 mm 2 mps 700 mmHg 92%
    23:00 -3°C° 0 mm 2 mps 699 mmHg 91%

    Tomorrow, 13 December, Friday

    Time Temperature Precipitation Wind Pressure Humidity
    00:00 -3°C° 0 mm 2 mps 698 mmHg 89%
    01:00 -3°C° 0 mm 2 mps 697 mmHg 88%
    02:00 -3°C° 0 mm 2 mps 696 mmHg 85%
    03:00 -3°C° 0 mm 2 mps 695 mmHg 83%
    04:00 -3°C° 0 mm 2 mps 694 mmHg 80%
    05:00 -3°C° 0 mm 2 mps 693 mmHg 77%
    06:00 -3°C° 0 mm 2 mps 692 mmHg 74%
    07:00 -2°C° 0 mm 2 mps 692 mmHg 72%
    08:00 -2°C° 0 mm 2 mps 691 mmHg 69%
    09:00 -1°C° 0 mm 2 mps 690 mmHg 66%
    10:00 +1°C° 0 mm 2 mps 689 mmHg 63%
    11:00 +2°C° 0.1 mm 2 mps 690 mmHg 63%
    12:00 +2°C° 0.1 mm 2 mps 690 mmHg 63%
    13:00 +3°C° 0.1 mm 2 mps 690 mmHg 64%
    14:00 +2°C° 0 mm 2 mps 690 mmHg 68%
    15:00 +2°C° 0 mm 2 mps 691 mmHg 72%
    16:00 +3°C° 0 mm 1 mps 691 mmHg 76%
    17:00 +1°C° 0 mm 2 mps 692 mmHg 79%
    18:00 +1°C° 0 mm 2 mps 692 mmHg 82%
    19:00 -1°C° 0 mm 3 mps 693 mmHg 85%
    20:00 0°C° 0 mm 3 mps 694 mmHg 84%
    21:00 0°C° 0 mm 3 mps 695 mmHg 82%
    22:00 0°C° 0 mm 3 mps 695 mmHg 81%
    23:00 0°C° 0 mm 3 mps 696 mmHg 79%

    Day after tomorrow, 14 December, Saturday

    Time Temperature Precipitation Wind Pressure Humidity
    00:00 0°C° 0 mm 3 mps 697 mmHg 78%
    01:00 0°C° 0 mm 3 mps 698 mmHg 76%
    02:00 0°C° 0 mm 3 mps 698 mmHg 76%
    03:00 0°C° 0 mm 3 mps 699 mmHg 76%
    04:00 -1°C° 0 mm 2 mps 699 mmHg 77%
    05:00 -1°C° 0 mm 2 mps 700 mmHg 77%
    06:00 -2°C° 0 mm 2 mps 700 mmHg 78%
    07:00 0°C° 0 mm 1 mps 700 mmHg 79%
    08:00 -1°C° 0 mm 2 mps 700 mmHg 74%
    09:00 +1°C° 0 mm 2 mps 701 mmHg 69%
    10:00 +2°C° 0 mm 2 mps 701 mmHg 64%
    11:00 +3°C° 0.1 mm 2 mps 701 mmHg 65%
    12:00 +4°C° 0.1 mm 2 mps 702 mmHg 66%
    13:00 +5°C° 0.1 mm 2 mps 702 mmHg 66%
    14:00 +5°C° 0.1 mm 2 mps 703 mmHg 69%
    15:00 +3°C° 0.1 mm 3 mps 703 mmHg 72%
    16:00 +3°C° 0.1 mm 3 mps 704 mmHg 75%
    17:00 +4°C° 0 mm 2 mps 704 mmHg 78%
    18:00 +4°C° 0 mm 2 mps 705 mmHg 81%
    19:00 +4°C° 0 mm 2 mps 706 mmHg 85%
    20:00 +4°C° 0.1 mm 2 mps 706 mmHg 86%
    21:00 +4°C° 0.1 mm 2 mps 707 mmHg 87%
    22:00 +4°C° 0.1 mm 2 mps 707 mmHg 89%
    23:00 +4°C° 0.1 mm 2 mps 707 mmHg 87%

    15 December, Sunday

    Time Temperature Precipitation Wind Pressure Humidity
    00:00 +4°C° 0.1 mm 2 mps 707 mmHg 85%
    01:00 +5°C° 0.1 mm 2 mps 707 mmHg 83%
    02:00 +4°C° 0.1 mm 2 mps 707 mmHg 83%
    03:00 +4°C° 0.1 mm 2 mps 707 mmHg 82%
    04:00 +4°C° 0.1 mm 2 mps 707 mmHg 82%
    05:00 +3°C° 0 mm 2 mps 707 mmHg 80%
    06:00 +3°C° 0 mm 2 mps 707 mmHg 79%
    07:00 +3°C° 0 mm 2 mps 707 mmHg 78%
    08:00 +4°C° 0 mm 2 mps 708 mmHg 76%
    09:00 +4°C° 0 mm 2 mps 708 mmHg 75%
    10:00 +5°C° 0 mm 2 mps 708 mmHg 73%
    11:00 +6°C° 0 mm 2 mps 708 mmHg 71%
    12:00 +9°C° 0 mm 1 mps 708 mmHg 69%
    13:00 +10°C° 0 mm 1 mps 708 mmHg 68%
    14:00 +9°C° 0 mm 1 mps 709 mmHg 71%
    15:00 +8°C° 0 mm 1 mps 709 mmHg 74%
    16:00 +7°C° 0 mm 1 mps 710 mmHg 77%
    17:00 +6°C° 0 mm 1 mps 710 mmHg 78%
    18:00 +5°C° 0 mm 2 mps 710 mmHg 79%
    19:00 +5°C° 0 mm 2 mps 711 mmHg 80%
    20:00 +4°C° 0 mm 2 mps 711 mmHg 80%
    21:00 +4°C° 0 mm 2 mps 711 mmHg 80%
    22:00 +4°C° 0 mm 2 mps 711 mmHg 81%
    23:00 +4°C° 0 mm 2 mps 711 mmHg 80%

    16 December, Monday

    Time Temperature Precipitation Wind Pressure Humidity
    00:00 +3°C° 0 mm 2 mps 711 mmHg 79%
    01:00 +3°C° 0 mm 2 mps 711 mmHg 78%
    02:00 +2°C° 0 mm 2 mps 711 mmHg 77%
    03:00 +2°C° 0 mm 2 mps 711 mmHg 76%
    04:00 +2°C° 0 mm 2 mps 711 mmHg 75%
    05:00 +1°C° 0 mm 2 mps 711 mmHg 75%
    06:00 +2°C° 0 mm 1 mps 710 mmHg 75%
    07:00 +2°C° 0 mm 1 mps 710 mmHg 74%
    08:00 +3°C° 0 mm 1 mps 710 mmHg 73%
    09:00 +4°C° 0 mm 1 mps 710 mmHg 72%
    10:00 +4°C° 0 mm 2 mps 710 mmHg 70%
    11:00 +6°C° 0 mm 1 mps 710 mmHg 70%
    12:00 +7°C° 0 mm 1 mps 709 mmHg 69%
    13:00 +8°C° 0 mm 1 mps 709 mmHg 68%
    14:00 +7°C° 0 mm 1 mps 709 mmHg 73%
    15:00 +6°C° 0 mm 1 mps 708 mmHg 78%
    16:00 +5°C° 0 mm 1 mps 708 mmHg 83%
    17:00 +5°C° 0 mm 1 mps 708 mmHg 83%
    18:00 +5°C° 0 mm 1 mps 708 mmHg 84%
    19:00 +4°C° 0 mm 1 mps 708 mmHg 85%
    20:00 +4°C° 0 mm 1 mps 708 mmHg 85%
    21:00 +4°C° 0 mm 1 mps 708 mmHg 85%
    22:00 +4°C° 0 mm 1 mps 709 mmHg 84%
    23:00 +4°C° 0 mm 1 mps 709 mmHg 84%

    17 December, Tuesday

    Time Temperature Precipitation Wind Pressure Humidity
    00:00 +4°C° 0 mm 2 mps 708 mmHg 83%
    01:00 +4°C° 0 mm 2 mps 708 mmHg 82%
    02:00 +4°C° 0 mm 2 mps 708 mmHg 82%
    03:00 +5°C° 0 mm 1 mps 709 mmHg 83%
    04:00 +5°C° 0 mm 1 mps 709 mmHg 83%
    05:00 +5°C° 0 mm 1 mps 709 mmHg 83%
    06:00 +4°C° 0 mm 2 mps 709 mmHg 83%
    07:00 +4°C° 0 mm 2 mps 709 mmHg 83%
    08:00 +5°C° 0 mm 2 mps 709 mmHg 81%
    09:00 +5°C° 0 mm 2 mps 709 mmHg 79%
    10:00 +6°C° 0 mm 2 mps 709 mmHg 76%
    11:00 +7°C° 0 mm 2 mps 709 mmHg 75%
    12:00 +9°C° 0 mm 1 mps 709 mmHg 74%
    13:00 +10°C° 0 mm 1 mps 709 mmHg 72%
    14:00 +9°C° 0 mm 1 mps 709 mmHg 75%
    15:00 +8°C° 0 mm 1 mps 710 mmHg 78%
    16:00 +7°C° 0 mm 1 mps 710 mmHg 81%
    17:00 +7°C° 0 mm 1 mps 710 mmHg 82%
    18:00 +7°C° 0 mm 1 mps 711 mmHg 83%
    19:00 +6°C° 0 mm 1 mps 711 mmHg 84%
    20:00 +6°C° 0 mm 1 mps 712 mmHg 84%
    21:00 +6°C° 0 mm 1 mps 712 mmHg 84%
    22:00 +6°C° 0 mm 1 mps 713 mmHg 83%
    23:00 +5°C° 0 mm 1 mps 713 mmHg 84%
    Show more